KF0FUL Weather Reports


time (UTC)temp
C
wind
direction
speed
KPH
gust
KPH
rain 1hr
cm
rain 24hr
cm
rain mn
cm
humidity
%
barometer
mb
20260906193237 38 265 3.2 6.4 0.00 0.00 0.00 34 1014.0
20260906192737 38 268 4.8 6.4 0.00 0.00 0.00 34 1014.0
20260906192237 38 257 4.8 6.4 0.00 0.00 0.00 34 1014.0
20260906191737 37 260 6.4 9.7 0.00 0.00 0.00 36 1014.0
20260906191238 37 255 4.8 6.4 0.00 0.00 0.00 38 1014.0
20260906190737 36 279 4.8 6.4 0.00 0.00 0.00 37 1014.0
20260906190237 36 252 1.6 3.2 0.00 0.00 0.00 38 1014.0
20260906185738 36 267 3.2 4.8 0.00 0.00 0.00 39 1014.0
20260906185241 36 266 3.2 4.8 0.00 0.00 0.00 38 1014.0
20260906184739 36 280 3.2 6.4 0.00 0.00 0.00 40 1014.0
20260906184237 36 256 4.8 6.4 0.00 0.00 0.00 38 1015.0
20260906183738 37 260 3.2 6.4 0.00 0.00 0.00 36 1015.0
20260906183238 37 266 4.8 6.4 0.00 0.00 0.00 37 1015.0
20260906182738 37 258 6.4 9.7 0.00 0.00 0.00 38 1015.0
20260906182237 37 268 3.2 6.4 0.00 0.00 0.00 36 1015.0
20260906181739 37 265 3.2 3.2 0.00 0.00 0.00 39 1015.0
20260906181237 37 257 3.2 3.2 0.00 0.00 0.00 38 1015.0
20260906180738 37 260 3.2 4.8 0.00 0.00 0.00 37 1015.0
20260906180237 36 269 3.2 4.8 0.00 0.00 0.00 37 1015.0
20260906175746 36 256 4.8 6.4 0.00 0.00 0.00 38 1015.0
20260906175237 36 271 3.2 4.8 0.00 0.00 0.00 38 1015.0
20260906174738 36 259 3.2 6.4 0.00 0.00 0.00 38 1016.0
20260906174237 36 272 3.2 6.4 0.00 0.00 0.00 39 1016.0
20260906173737 36 247 3.2 4.8 0.00 0.00 0.00 39 1016.0
20260906173237 36 254 3.2 4.8 0.00 0.00 0.00 38 1016.0
20260906172738 36 269 3.2 4.8 0.00 0.00 0.00 38 1016.0
20260906172237 36 267 3.2 4.8 0.00 0.00 0.00 38 1016.0
20260906171737 36 263 4.8 6.4 0.00 0.00 0.00 39 1016.0
20260906171237 36 261 6.4 8.0 0.00 0.00 0.00 40 1016.0
20260906170738 36 264 4.8 6.4 0.00 0.00 0.00 39 1016.0
20260906170237 36 257 3.2 6.4 0.00 0.00 0.00 39 1016.0
20260906165738 36 262 3.2 3.2 0.00 0.00 0.00 38 1016.0
20260906165241 36 255 1.6 3.2 0.00 0.00 0.00 39 1016.0
20260906164737 36 281 3.2 3.2 0.00 0.00 0.00 38 1016.0
20260906164237 35 259 3.2 4.8 0.00 0.00 0.00 39 1016.0
20260906163737 35 249 3.2 3.2 0.00 0.00 0.00 39 1017.0
20260906163237 35 269 4.8 6.4 0.00 0.00 0.00 40 1017.0
20260906162738 35 252 3.2 3.2 0.00 0.00 0.00 39 1017.0
20260906162238 35 264 1.6 3.2 0.00 0.00 0.00 40 1017.0
20260906161737 34 268 3.2 4.8 0.00 0.00 0.00 41 1017.0
20260906161237 35 257 3.2 6.4 0.00 0.00 0.00 41 1017.0
20260906160737 34 266 3.2 6.4 0.00 0.00 0.00 43 1017.0
20260906160237 34 268 4.8 6.4 0.00 0.00 0.00 42 1017.0
20260906155737 34 287 3.2 6.4 0.00 0.00 0.00 41 1017.0
20260906155237 34 261 4.8 6.4 0.00 0.00 0.00 42 1016.0
20260906154737 33 258 3.2 4.8 0.00 0.00 0.00 43 1016.0
20260906154237 33 263 4.8 6.4 0.00 0.00 0.00 44 1016.0
20260906153740 33 254 3.2 4.8 0.00 0.00 0.00 46 1016.0
20260906153238 32 260 4.8 6.4 0.00 0.00 0.00 46 1016.0
20260906152739 32 264 3.2 4.8 0.00 0.00 0.00 46 1016.0
20260906152237 32 248 3.2 4.8 0.00 0.00 0.00 48 1016.0
20260906151737 32 267 4.8 6.4 0.00 0.00 0.00 48 1016.0
20260906151237 32 253 3.2 6.4 0.00 0.00 0.00 49 1016.0
20260906150738 32 254 3.2 4.8 0.00 0.00 0.00 49 1016.0
20260906150237 32 301 3.2 4.8 0.00 0.00 0.00 49 1016.0
20260906145738 32 280 4.8 6.4 0.00 0.00 0.00 49 1016.0
20260906145238 32 283 3.2 4.8 0.00 0.00 0.00 47 1016.0
20260906144738 31 310 3.2 4.8 0.00 0.00 0.00 49 1016.0
20260906144237 31 306 3.2 3.2 0.00 0.00 0.00 49 1016.0
20260906143738 31 314 3.2 4.8 0.00 0.00 0.00 50 1016.0
20260906143237 31 313 3.2 3.2 0.00 0.00 0.00 51 1016.0
20260906142738 30 313 3.2 4.8 0.00 0.00 0.00 53 1016.0
20260906142237 30 315 3.2 3.2 0.00 0.00 0.00 55 1016.0
20260906141737 30 309 4.8 6.4 0.00 0.00 0.00 54 1016.0
20260906141237 30 312 3.2 4.8 0.00 0.00 0.00 55 1016.0
20260906140737 30 316 3.2 4.8 0.00 0.00 0.00 54 1016.0
20260906140238 30 315 3.2 4.8 0.00 0.00 0.00 55 1016.0
20260906135737 30 306 3.2 3.2 0.00 0.00 0.00 55 1016.0
20260906135237 30 296 1.6 1.6 0.00 0.00 0.00 56 1016.0
20260906134741 30 306 1.6 3.2 0.00 0.00 0.00 55 1016.0
20260906134237 30 307 1.6 3.2 0.00 0.00 0.00 56 1016.0
20260906133737 29 308 1.6 1.6 0.00 0.00 0.00 57 1016.0
20260906133237 29 311 1.6 1.6 0.00 0.00 0.00 59 1016.0
20260906132738 28 310 1.6 1.6 0.00 0.00 0.00 60 1016.0
20260906132238 28 310 1.6 1.6 0.00 0.00 0.00 62 1016.0
20260906131738 27 312 1.6 1.6 0.00 0.00 0.00 63 1016.0
20260906131237 27 315 1.6 1.6 0.00 0.00 0.00 64 1016.0
20260906130737 27 315 1.6 1.6 0.00 0.00 0.00 66 1016.0
20260906130237 26 315 1.6 1.6 0.00 0.00 0.00 67 1016.0
20260906125737 26 316 1.6 1.6 0.00 0.00 0.00 69 1016.0
20260906125237 25 316 1.6 1.6 0.00 0.00 0.00 71 1016.0
20260906124740 25 316 1.6 1.6 0.00 0.00 0.00 72 1015.0
20260906124237 25 315 1.6 1.6 0.00 0.00 0.00 74 1015.0
20260906123737 24 315 1.6 1.6 0.00 0.00 0.00 73 1015.0
20260906123238 24 315 1.6 1.6 0.00 0.00 0.00 73 1015.0
20260906122737 24 315 1.6 1.6 0.00 0.00 0.00 73 1015.0
20260906122237 23 316 1.6 1.6 0.00 0.00 0.00 74 1015.0
20260906121737 23 316 1.6 1.6 0.00 0.00 0.00 75 1015.0
20260906121237 23 316 1.6 3.2 0.00 0.00 0.00 77 1015.0
20260906120738 23 316 1.6 1.6 0.00 0.00 0.00 78 1015.0
20260906120237 23 316 1.6 1.6 0.00 0.00 0.00 79 1015.0
20260906115737 23 316 1.6 1.6 0.00 0.00 0.00 79 1015.0
20260906115238 23 316 1.6 1.6 0.00 0.00 0.00 79 1015.0
20260906114737 23 315 1.6 1.6 0.00 0.00 0.00 79 1015.0
20260906114238 23 312 1.6 3.2 0.00 0.00 0.00 80 1015.0
20260906113737 23 312 1.6 3.2 0.00 0.00 0.00 81 1015.0
20260906113238 23 313 1.6 1.6 0.00 0.00 0.00 83 1015.0
20260906112737 23 315 1.6 3.2 0.00 0.00 0.00 84 1015.0
20260906112237 23 314 3.2 3.2 0.00 0.00 0.00 84 1015.0
20260906111738 23 308 1.6 1.6 0.00 0.00 0.00 84 1015.0
20260906111237 23 301 1.6 3.2 0.00 0.00 0.00 83 1014.0
20260906110737 24 310 1.6 1.6 0.00 0.00 0.00 82 1014.0
20260906110237 24 305 1.6 1.6 0.00 0.00 0.00 81 1014.0
20260906105737 24 307 1.6 1.6 0.00 0.00 0.00 78 1014.0
20260906105237 24 307 1.6 3.2 0.00 0.00 0.00 77 1014.0
20260906104737 24 303 1.6 1.6 0.00 0.00 0.00 78 1014.0
20260906104237 24 307 1.6 1.6 0.00 0.00 0.00 77 1014.0
20260906103737 24 306 1.6 3.2 0.00 0.00 0.00 76 1014.0
20260906103237 25 303 1.6 1.6 0.00 0.00 0.00 77 1014.0
20260906102737 25 309 1.6 1.6 0.00 0.00 0.00 76 1014.0
20260906102237 25 307 1.6 1.6 0.00 0.00 0.00 75 1014.0
20260906101737 25 309 1.6 1.6 0.00 0.00 0.00 72 1014.0
20260906101237 25 305 1.6 1.6 0.00 0.00 0.00 71 1014.0
20260906100737 25 303 1.6 1.6 0.00 0.00 0.00 70 1014.0
20260906100237 25 302 1.6 1.6 0.00 0.00 0.00 70 1014.0
20260906095738 25 305 1.6 3.2 0.00 0.00 0.00 69 1014.0
20260906095237 25 300 1.6 1.6 0.00 0.00 0.00 69 1014.0
20260906094737 25 306 1.6 1.6 0.00 0.00 0.00 70 1014.0
20260906094237 25 297 1.6 3.2 0.00 0.00 0.00 72 1014.0
20260906093737 25 305 1.6 1.6 0.00 0.00 0.00 74 1014.0
20260906093237 25 297 1.6 1.6 0.00 0.00 0.00 75 1014.0
20260906092737 25 303 1.6 3.2 0.00 0.00 0.00 74 1014.0
20260906092238 25 309 1.6 1.6 0.00 0.00 0.00 73 1014.0
20260906091737 25 306 1.6 3.2 0.00 0.00 0.00 73 1014.0
20260906091237 25 302 1.6 3.2 0.00 0.00 0.00 73 1014.0
20260906090737 25 301 1.6 3.2 0.00 0.00 0.00 72 1014.0
20260906090237 25 302 1.6 1.6 0.00 0.00 0.00 71 1014.0
20260906085737 25 304 1.6 3.2 0.00 0.00 0.00 75 1014.0
20260906085237 25 296 1.6 1.6 0.00 0.00 0.00 73 1014.0
20260906084738 26 305 1.6 1.6 0.00 0.00 0.00 70 1014.0
20260906084237 26 300 1.6 1.6 0.00 0.00 0.00 68 1014.0
20260906083737 26 303 1.6 3.2 0.00 0.00 0.00 68 1014.0
20260906083238 26 307 1.6 1.6 0.00 0.00 0.00 68 1014.0
20260906082737 26 303 1.6 3.2 0.00 0.00 0.00 68 1014.0
20260906082237 26 311 1.6 3.2 0.00 0.00 0.00 67 1014.0
20260906081737 26 309 1.6 1.6 0.00 0.00 0.00 67 1014.0
20260906081238 26 305 1.6 3.2 0.00 0.00 0.00 67 1014.0
20260906080737 26 303 1.6 1.6 0.00 0.00 0.00 66 1014.0
20260906080237 26 297 1.6 1.6 0.00 0.00 0.00 64 1014.0
20260906075737 27 297 1.6 1.6 0.00 0.00 0.00 63 1014.0
20260906075237 27 300 1.6 1.6 0.00 0.00 0.00 62 1014.0
20260906074741 27 301 1.6 3.2 0.00 0.00 0.00 61 1014.0
20260906074237 27 296 1.6 1.6 0.00 0.00 0.00 60 1014.0
20260906073737 27 304 1.6 3.2 0.00 0.00 0.00 61 1014.0
20260906073236 27 308 1.6 1.6 0.00 0.00 0.00 61 1014.0
20260906072737 27 304 1.6 3.2 0.00 0.00 0.00 61 1014.0
20260906072237 27 306 1.6 3.2 0.00 0.00 0.00 61 1014.0
20260906071737 27 302 1.6 1.6 0.00 0.00 0.00 60 1014.0
20260906071237 27 296 1.6 3.2 0.00 0.00 0.00 60 1014.0
20260906070738 27 302 1.6 3.2 0.00 0.00 0.00 60 1014.0
20260906070237 27 300 1.6 1.6 0.00 0.00 0.00 60 1014.0
20260906065737 27 302 3.2 3.2 0.00 0.00 0.00 61 1014.0
20260906065237 27 298 1.6 1.6 0.00 0.00 0.00 60 1014.0
20260906064737 27 299 1.6 3.2 0.00 0.00 0.00 60 1014.0
20260906064237 27 301 1.6 3.2 0.00 0.00 0.00 60 1014.0
20260906063738 27 303 1.6 3.2 0.00 0.00 0.00 59 1014.0
20260906063237 28 299 1.6 3.2 0.00 0.00 0.00 59 1014.0
20260906062737 28 302 1.6 3.2 0.00 0.00 0.00 58 1014.0
20260906062238 28 299 1.6 3.2 0.00 0.00 0.00 58 1014.0
20260906061737 28 300 1.6 3.2 0.00 0.00 0.00 58 1014.0
20260906061237 28 299 1.6 3.2 0.00 0.00 0.00 57 1014.0
20260906060738 28 301 1.6 1.6 0.00 0.00 0.00 57 1014.0
20260906060237 28 300 1.6 3.2 0.00 0.00 0.00 56 1014.0
20260906055738 28 303 1.6 3.2 0.00 0.00 0.00 56 1014.0
20260906055238 28 301 1.6 3.2 0.00 0.00 0.00 55 1014.0
20260906054737 28 304 1.6 3.2 0.00 0.00 0.00 55 1014.0
20260906054237 29 306 1.6 3.2 0.00 0.00 0.00 54 1014.0
20260906053737 29 310 1.6 3.2 0.00 0.00 0.00 54 1014.0
20260906053238 29 308 1.6 3.2 0.00 0.00 0.00 54 1014.0
20260906052737 29 307 1.6 3.2 0.00 0.00 0.00 54 1014.0
20260906052237 29 307 3.2 3.2 0.00 0.00 0.00 53 1014.0
20260906051738 29 311 3.2 3.2 0.00 0.00 0.00 53 1014.0
20260906051238 29 304 3.2 3.2 0.00 0.00 0.00 53 1014.0
20260906050739 30 301 3.2 3.2 0.00 0.00 0.00 52 1014.0
20260906050237 30 303 3.2 3.2 0.00 0.00 0.00 52 1014.0
20260906045737 30 301 3.2 3.2 0.00 0.00 0.00 52 1014.0
20260906045237 30 298 3.2 3.2 0.00 0.00 0.00 51 1014.0
20260906044737 30 300 3.2 3.2 0.00 0.00 0.00 51 1014.0
20260906044237 30 300 3.2 3.2 0.00 0.00 0.00 50 1014.0
20260906043737 30 303 3.2 3.2 0.00 0.00 0.00 50 1014.0
20260906043237 30 300 3.2 4.8 0.00 0.00 0.00 50 1014.0
20260906042737 30 308 3.2 3.2 0.00 0.00 0.00 50 1014.0
20260906042237 30 307 3.2 3.2 0.00 0.00 0.00 49 1014.0
20260906041737 31 305 3.2 4.8 0.00 0.00 0.00 49 1014.0
20260906041237 31 303 3.2 4.8 0.00 0.00 0.00 48 1014.0
20260906040739 31 304 3.2 4.8 0.00 0.00 0.00 48 1014.0
20260906040238 31 301 3.2 4.8 0.00 0.00 0.00 47 1014.0
20260906035737 31 301 3.2 6.4 0.00 0.00 0.00 47 1014.0
20260906035237 31 305 4.8 6.4 0.00 0.00 0.00 47 1014.0
20260906034737 31 301 4.8 6.4 0.00 0.00 0.00 47 1014.0
20260906034237 31 308 3.2 6.4 0.00 0.00 0.00 47 1014.0
20260906033737 31 311 4.8 6.4 0.00 0.00 0.00 47 1014.0
20260906033237 31 311 4.8 6.4 0.00 0.00 0.00 47 1014.0
20260906032738 31 296 4.8 6.4 0.00 0.00 0.00 47 1014.0
20260906032238 31 298 4.8 6.4 0.00 0.00 0.00 47 1014.0
20260906031737 32 309 3.2 4.8 0.00 0.00 0.00 47 1014.0
20260906031237 32 306 4.8 6.4 0.00 0.00 0.00 46 1014.0
20260906030737 32 312 3.2 6.4 0.00 0.00 0.00 46 1013.0
20260906030238 32 309 3.2 6.4 0.00 0.00 0.00 46 1013.0
20260906025737 32 306 3.2 4.8 0.00 0.00 0.00 46 1013.0
20260906025237 32 297 4.8 11.3 0.00 0.00 0.00 46 1013.0
20260906024737 32 292 4.8 6.4 0.00 0.00 0.00 46 1013.0
20260906024239 32 278 3.2 4.8 0.00 0.00 0.00 46 1013.0
20260906023737 32 286 3.2 4.8 0.00 0.00 0.00 45 1013.0
20260906023237 32 293 3.2 4.8 0.00 0.00 0.00 45 1013.0
20260906022738 32 296 3.2 4.8 0.00 0.00 0.00 45 1013.0
20260906022239 32 294 3.2 4.8 0.00 0.00 0.00 45 1013.0
20260906021737 32 294 3.2 6.4 0.00 0.00 0.00 45 1013.0
20260906021237 32 299 3.2 6.4 0.00 0.00 0.00 45 1013.0
20260906020737 32 306 3.2 4.8 0.00 0.00 0.00 45 1013.0
20260906020239 32 310 3.2 6.4 0.00 0.00 0.00 45 1013.0
20260906015737 32 311 3.2 6.4 0.00 0.00 0.00 45 1013.0
20260906015237 32 304 3.2 3.2 0.00 0.00 0.00 45 1013.0
20260906014737 32 303 3.2 3.2 0.00 0.00 0.00 45 1013.0
20260906014237 32 306 3.2 3.2 0.00 0.00 0.00 44 1013.0
20260906013738 33 306 3.2 3.2 0.00 0.00 0.00 44 1013.0
20260906013237 33 302 4.8 6.4 0.00 0.00 0.00 43 1013.0
20260906012738 33 299 4.8 6.4 0.00 0.00 0.00 43 1012.0
20260906012237 33 299 4.8 6.4 0.00 0.00 0.00 43 1012.0
20260906011737 33 302 3.2 6.4 0.00 0.00 0.00 43 1012.0
20260906011238 33 298 3.2 4.8 0.00 0.00 0.00 42 1012.0
20260906010737 33 294 3.2 6.4 0.00 0.00 0.00 42 1012.0
20260906010237 33 285 4.8 6.4 0.00 0.00 0.00 42 1012.0
20260906005737 33 277 4.8 6.4 0.00 0.00 0.00 42 1012.0
20260906005237 34 272 3.2 4.8 0.00 0.00 0.00 42 1012.0
20260906004737 34 267 3.2 4.8 0.00 0.00 0.00 41 1012.0
20260906004237 34 288 4.8 8.0 0.00 0.00 0.00 41 1012.0
20260906003737 34 294 6.4 9.7 0.00 0.00 0.00 40 1012.0
20260906003237 35 284 6.4 9.7 0.00 0.00 0.00 40 1012.0
20260906002737 35 277 4.8 9.7 0.00 0.00 0.00 40 1012.0
20260906002237 35 281 4.8 8.0 0.00 0.00 0.00 40 1012.0
20260906001737 35 278 4.8 8.0 0.00 0.00 0.00 40 1012.0
20260906001238 35 286 8.0 9.7 0.00 0.00 0.00 39 1012.0
20260906000737 35 277 6.4 8.0 0.00 0.00 0.00 39 1012.0
20260906000238 35 272 4.8 6.4 0.00 0.00 0.00 39 1012.0
20260905235737 35 268 3.2 4.8 0.00 0.00 0.00 38 1012.0
20260905235237 36 273 3.2 6.4 0.00 0.00 0.00 38 1012.0
20260905234737 36 254 3.2 6.4 0.00 0.00 0.00 38 1012.0
20260905234237 36 270 4.8 9.7 0.00 0.00 0.00 37 1012.0
20260905233737 36 267 3.2 6.4 0.00 0.00 0.00 37 1012.0
20260905233238 36 270 3.2 6.4 0.00 0.00 0.00 36 1012.0
20260905232738 36 276 4.8 8.0 0.00 0.00 0.00 36 1012.0
20260905232237 36 273 4.8 9.7 0.00 0.00 0.00 36 1012.0
20260905231738 37 257 4.8 6.4 0.00 0.00 0.00 36 1012.0
20260905231238 37 267 3.2 6.4 0.00 0.00 0.00 35 1012.0
20260905230737 38 271 6.4 9.7 0.00 0.00 0.00 34 1012.0
20260905230237 38 274 4.8 6.4 0.00 0.00 0.00 34 1012.0
20260905225737 38 279 6.4 9.7 0.00 0.00 0.00 34 1012.0
20260905225237 38 276 6.4 11.3 0.00 0.00 0.00 33 1012.0
20260905224737 38 268 6.4 8.0 0.00 0.00 0.00 34 1012.0
20260905224237 38 268 6.4 8.0 0.00 0.00 0.00 35 1012.0
20260905223737 38 266 6.4 9.7 0.00 0.00 0.00 35 1012.0
20260905223237 38 279 4.8 8.0 0.00 0.00 0.00 35 1012.0
20260905222738 38 270 4.8 6.4 0.00 0.00 0.00 34 1012.0
20260905222237 38 271 6.4 11.3 0.00 0.00 0.00 34 1012.0
20260905221737 38 275 4.8 8.0 0.00 0.00 0.00 34 1012.0
20260905221237 38 267 6.4 6.4 0.00 0.00 0.00 33 1012.0
20260905220738 38 273 4.8 6.4 0.00 0.00 0.00 34 1012.0
20260905220237 38 267 6.4 9.7 0.00 0.00 0.00 35 1012.0
20260905215737 38 271 6.4 12.9 0.00 0.00 0.00 34 1012.0
20260905215237 38 272 4.8 6.4 0.00 0.00 0.00 34 1012.0
20260905214738 38 274 4.8 6.4 0.00 0.00 0.00 34 1012.0
20260905214236 38 263 4.8 9.7 0.00 0.00 0.00 34 1012.0
20260905213738 38 265 4.8 8.0 0.00 0.00 0.00 35 1012.0
20260905213238 38 260 4.8 6.4 0.00 0.00 0.00 34 1012.0
20260905212737 38 268 6.4 9.7 0.00 0.00 0.00 34 1012.0
20260905212239 38 271 4.8 11.3 0.00 0.00 0.00 35 1012.0
20260905211737 38 269 4.8 8.0 0.00 0.00 0.00 35 1012.0
20260905211237 38 270 3.2 4.8 0.00 0.00 0.00 36 1012.0
20260905210737 38 265 4.8 8.0 0.00 0.00 0.00 36 1012.0
20260905210238 38 262 3.2 6.4 0.00 0.00 0.00 35 1012.0
20260905205739 37 261 4.8 6.4 0.00 0.00 0.00 37 1012.0
20260905205237 37 270 6.4 11.3 0.00 0.00 0.00 37 1012.0
20260905204737 37 279 4.8 8.0 0.00 0.00 0.00 37 1013.0
20260905204237 38 264 4.8 8.0 0.00 0.00 0.00 37 1013.0
20260905203738 38 266 3.2 6.4 0.00 0.00 0.00 38 1013.0
20260905203237 38 280 4.8 8.0 0.00 0.00 0.00 38 1013.0
20260905202739 38 289 6.4 9.7 0.00 0.00 0.00 37 1013.0
20260905202239 38 283 6.4 11.3 0.00 0.00 0.00 38 1013.0
20260905201738 38 280 4.8 12.9 0.00 0.00 0.00 37 1013.0
20260905201237 37 279 6.4 9.7 0.00 0.00 0.00 38 1013.0
20260905200737 37 280 6.4 9.7 0.00 0.00 0.00 39 1013.0
20260905200238 37 276 4.8 6.4 0.00 0.00 0.00 38 1013.0
20260905195737 37 269 4.8 6.4 0.00 0.00 0.00 39 1013.0
20260905195237 37 263 4.8 6.4 0.00 0.00 0.00 40 1013.0
20260905194739 37 270 4.8 9.7 0.00 0.00 0.00 38 1014.0
20260905194238 37 287 4.8 8.0 0.00 0.00 0.00 41 1014.0
20260905193737 37 267 3.2 4.8 0.00 0.00 0.00 40 1014.0